Preview of NWS' New Version of Forecast
This preview is not operational and should not be used for support decisions.
Latest weather observations around

Batavia Clermont County Airport (KI69)

Using English Units (Switch to International System of Units)
Date/ Time (EDT) Wind (mph) Vis. (mi) Weather Sky Cond. Temp (°F) Rel. Humidity Wind Chill (°F) Heat Index (°F) Pressure Precip. (in)
Air Dwpt 6 hour Altimeter (inHg) Sea level (inHg) 1 hr 3 hr 6 hr
Max Min
Jun 17 06:35 Calm 10 Light Rain SCT006 BKN036 OVC070 66 66     98%         0    
Jun 17 06:15 S 3 7 Light Rain SCT006 BKN046 OVC060 66 66     99%     29.97   0    
Jun 17 05:56 SSW 3 10 Light Drizzle SCT004 BKN044 OVC080 66 66     99%     29.97   0    
Jun 17 05:38 SSW 3 10 Light Drizzle SCT006 SCT014 OVC044 66 66     98%     29.97   0    
Jun 17 05:15 SW 5 10 Light Rain SCT004 BKN045 OVC050 66 66     98%     29.96        
Jun 17 04:55 SSW 3 10 Mostly Cloudy SCT004 BKN060 BKN110 66 65     98%     29.95        
Jun 17 04:35 S 3 10 Mostly Cloudy BKN110 66 65     99%     29.94        
Jun 17 04:16 Calm 10 Partly Cloudy SCT110 66 65     98%     29.93        
Jun 17 03:58 Calm 10 Light Drizzle SCT095 SCT120 66 65     97%     29.93        
Jun 17 03:35 SSW 5 10 Mostly Cloudy BKN095 66 65     98%     29.94        
Jun 17 03:15 SSW 5 10 Partly Cloudy SCT095 SCT110 66 65     98%     29.94        
Jun 17 02:55 Calm 10 Rain SCT110 66 65     97%     29.95        
Jun 17 02:36 SSW 6 10 Clear   66 65     97%     29.96        
Jun 17 02:18 SW 7 10 Clear   66 65     98%     29.97        
Jun 17 01:55 SW 5 10 Clear   66 65     98%     29.96   0   0
Jun 17 01:35 W 6 10 Light Rain SCT110 66 65     98%     29.94        
Jun 17 01:15 Calm 10 Light Rain SCT110 66 65     98%     29.92        
Jun 17 00:56 Calm 10 Light Rain CLR 67 65     96%     29.93   0    
Jun 17 00:38 SW 7 10 Light Rain SCT110 67 65     95%     29.94   0    
Jun 17 00:15 SW 5 10 Rain BKN120 67 65     95%     29.97   0    
Jun 16 23:55 S 6 10 Light Rain SCT110 67 66     98%     29.97   0    
Jun 16 23:35 S 5 10 Rain SCT100 BKN120 67 66     98%     29.96   0    
Jun 16 23:17 Calm 7 Rain SCT100 OVC120 67 66     97%     29.96   0    
Jun 16 22:58 S 7 10 Rain BKN120 67 66     94%     29.96   0    
Jun 16 22:35 SSW 8 10 Light Rain CLR 68 66     94%     29.94   0    
Jun 16 22:15 SSW 5 10 Rain CLR 68 67     96%     29.92   0    
Jun 16 21:55 SSW 6 10 Rain SCT110 69 67     94%     29.92   0    
Jun 16 21:37 SW 7 10 Light Rain SCT100 69 67     91%     29.91   0    
Jun 16 21:19 SW 5 10 Light Rain SCT100 SCT120 69 67     92%     29.9        
Jun 16 20:55 W 3 10 Clear CLR 69 67     94%     29.89        
Jun 16 20:35 S 6 10 Clear CLR 69 67     95%     29.87        
Jun 16 20:15 SSW 3 10 Clear CLR 69 67     93%     29.87        
Jun 16 19:57 Calm 10 Clear CLR 69 68     95%     29.87        
Jun 16 19:39 SW 3 10 Clear CLR 70 67     92%     29.87        
Jun 16 19:16 NW 8 10 Light Rain CLR 71 66     84%   72 29.83        
Jun 16 18:55 SSW 13 10 Light Rain SCT075 SCT100 SCT120 72 67     84%   72 29.82   0    
Jun 16 18:35 SW 14 5 Heavy Rain SCT029 BKN100 OVC120 75 70     84%   76 29.89   0    
Jun 16 18:17 WSW 9 10 Rain SCT047 SCT080 BKN110 78 74     90%   79 29.9        
Jun 16 17:59 SW 7 10 Mostly Cloudy SCT042 SCT050 BKN100 79 73     82%   83 29.9        
Jun 16 17:35 SW 7 10 Clear CLR 80 73     78%   84 29.89        
Jun 16 17:15 SSW 6 10 Partly Cloudy SCT019 SCT025 SCT040 81 73     76%   86 29.88        
Jun 16 16:55 SSW 5 10 Partly Cloudy SCT017 SCT040 SCT050 81 74     77%   87 29.89     0  
Jun 16 16:37 SSW 5 10 Mostly Cloudy SCT019 SCT025 BKN055 81 74     80%   86 29.89        
Jun 16 16:19 SSW 6 10 Cloudy SCT017 SCT025 OVC049 80 73     81%   83 29.9        
Jun 16 15:55 SSW 6 10 Partly Cloudy SCT049 78 72     83%   79 29.91        
Jun 16 15:35 Calm 10 Partly Cloudy SCT035 76 72     88%   78 29.91        
Jun 16 15:15 Calm 10 Cloudy OVC035 73 69     88%   74 29.92        
Jun 16 14:57 Calm 10 Mostly Cloudy BKN037 BKN055 BKN070 71 68     91%   72 29.93   0    
Jun 16 14:39 Calm 10 Light Rain SCT021 BKN070 OVC100 68 66     94%     29.93   0    
Jun 16 14:16 SW 7 7 Rain SCT050 SCT070 BKN100 69 67     92%     29.93   0    
Jun 16 14:15 WSW 7 10 Rain SCT033 SCT050 BKN100 69 66     92%     29.93        
Jun 16 13:57 SW 6 10 Partly Cloudy SCT040 SCT049 SCT065 69 67     93%     29.93   0    
Jun 16 13:39 SW 7 10 Light Rain SCT050 BKN065 BKN110 68 66     95%     29.94   0    
Jun 16 13:15 SW 10 10 Light Rain SCT100 OVC120 68 66     95%     29.94   0    
Jun 16 12:55 SSW 7 10 Light Rain BKN120 67 66     95%     29.92   0    
Jun 16 12:35 SW 9 10 Light Rain SCT033 SCT080 OVC110 68 66     93%     29.94   0    
Jun 16 12:17 SW 8 10 Rain SCT015 BKN090 OVC110 69 67     92%     29.94   0    
Jun 16 11:59 WNW 9 7 Heavy Rain SCT013 SCT060 OVC110 69 67     94%         0    
Jun 16 11:35 SW 7 10 Light Rain SCT055 BKN100 OVC120 71 67     87%   72 29.95        
Jun 16 11:15 WSW 8 10 Mostly Cloudy SCT050 BKN070 BKN085 72 66     83%   73 29.93        
Jun 16 10:56 SW 8 10 Mostly Cloudy SCT015 SCT055 BKN085 72 67     84%   73 29.93     0  
Jun 16 10:37 WSW 10 10 Mostly Cloudy SCT013 BKN055 72 67     85%   73 29.93        
Jun 16 10:19 SW 13 10 Mostly Cloudy BKN009 71 68     88%   72 29.92        
Jun 16 09:55 SW 11 10 Mostly Cloudy BKN009 BKN014 70 67     91%     29.91        
Jun 16 09:35 SW 9 10 Clear CLR 68 66     94%     29.9        
Jun 16 09:16 SW 14 10 Clear CLR 67 66     95%     29.9        
Jun 16 08:57 SSW 6 10 Partly Cloudy SCT050 SCT060 SCT070 66 65     96%     29.9   0    
Jun 16 08:39 S 3 10 Light Rain SCT050 SCT070 BKN110 66 65     98%     29.88   0    
Jun 16 08:15 SSW 5 10 Light Rain SCT037 SCT080 SCT110 66 65     95%     29.88        
Jun 16 07:55 SW 6 10 Light Rain BKN110 66 65     96%     29.89   0   2
Jun 16 07:36 SW 6 10 Rain SCT013 SCT050 BKN110 67 65     95%     29.88   0    
Jun 16 07:18 WSW 13 7 Rain SCT013 BKN033 OVC070 68 66     96%     29.88   0    
Jun 16 06:59 WSW 6 7 Light Rain SCT017 BKN030 OVC080 68 67     97%     29.87   0    
Jun 16 06:35 WSW 5 5 Heavy Rain SCT023 BKN030 OVC120 69 67     93%     29.87   0    
Jun 16 06:15 SSW 5 10 Light Drizzle SCT120 69 66     92%     29.86        
Jun 16 05:56 SSW 6 10 Light Rain BKN120 69 66     92%     29.85   0    
Jun 16 05:38 SSW 5 10 Light Rain SCT120 69 67     93%     29.85   0    
Jun 16 05:15 S 6 10 Partly Cloudy SCT034 SCT041 SCT055 68 67     95%     29.83        
Jun 16 04:55 S 5 10 Mostly Cloudy SCT034 BKN041 BKN050 69 67     94%     29.84     2  
Jun 16 04:35 SSE 6 10 Cloudy SCT005 BKN031 OVC039 68 68     99%     29.84        
Jun 16 04:16 NNE 3 10 Cloudy SCT003 OVC033 68 68     99%     29.86        
Jun 16 03:58 S 6 10 Cloudy SCT021 BKN031 OVC041 68 68     98%     29.85   0    
Jun 16 03:35 W 5 10 Cloudy SCT005 BKN031 OVC042 68 68     98%     29.87   0    
Jun 16 03:15 SSW 6 2.5 Heavy Rain SCT012 BKN028 OVC055 68 67     98%     29.86   0    
Jun 16 02:55 WSW 14 1.5 Heavy Rain BKN011 BKN022 OVC036 68 66     95%     29.86   1    
Jun 16 02:36 SW 3 1.5 Heavy Rain BKN005 BKN014 OVC023 68 68     99%     29.88   1    
Jun 16 02:18 Calm 3 Heavy Rain SCT005 BKN023 OVC034 68 68     99%     29.89   0    
Jun 16 01:55 WSW 5 4 Rain SCT006 BKN028 OVC034 68 68     98%     29.88   0   1
Jun 16 01:35 WSW 6 3 Heavy Rain SCT021 BKN046 OVC070 69 68     98%     29.87   0    
Jun 16 01:15 SW 7 7 Heavy Rain SCT031 BKN075 OVC110 69 68     96%     29.88   0    
Jun 16 00:56 WSW 9 5 Rain SCT015 BKN036 OVC070 69 68     95%     29.87   1    
Jun 16 00:38   10 Heavy Rain SCT015 BKN033 OVC065 69 67     95%     29.89   0    
Jun 16 00:15 W 7 4 Rain SCT010 BKN022 OVC042 68 67     96%     29.88   0    
Jun 15 23:55   7 Rain BKN047 BKN060 OVC075 70 66     88%     29.89   0    
Jun 15 23:35 S 8 10 Light Rain SCT049 SCT060 BKN120 70 66     87%     29.84   0    
Jun 15 23:16 SSW 9 10 Rain SCT120 71 66     85%   71 29.85   0    
Jun 15 22:58 S 8 10 Light Rain SCT060 BKN120 71 66     85%   72 29.85   0    
Jun 15 22:35 S 6 10 Rain SCT060 SCT075 OVC120 71 66     85%   72 29.86   0    
Jun 15 22:15 S 9 10 Rain SCT055 SCT090 BKN110 73 65     76%   74 29.86   0    
Jun 15 21:55 S 8 10 Light Rain SCT055 BKN090 OVC120 75 65     70%   76 29.86        
Jun 15 21:37 S 7 10 Cloudy OVC090 76 65     69%   76 29.85        
Jun 15 21:18 S 9 10 Mostly Cloudy BKN100 75 65     70%   76 29.85        
Jun 15 20:55 S 8 10 Clear CLR 75 65     72%   76 29.85        
Jun 15 20:35 S 7 10 Partly Cloudy SCT050 SCT070 74 66     75%   75 29.86        
Jun 15 20:15 S 6 10 Cloudy BKN050 OVC070 74 67     78%   75 29.87        
Jun 15 19:57 S 5 10 Cloudy OVC050 73 69     87%   74 29.88        
Jun 15 19:38 Calm 10 Cloudy BKN048 OVC050 71 70     95%   73 29.88        
Jun 15 19:15 Calm 10 Mostly Cloudy BKN050 BKN065 72 70     95%   73 29.89        
Jun 15 18:55 Calm 10 Mostly Cloudy SCT048 BKN065 72 70     92%   74 29.9   0    
Jun 15 18:35 Calm 10 Cloudy BKN044 OVC060 71 69     95%   72 29.91   0    
Jun 15 18:17 N 10 7 Light Rain SCT029 SCT044 OVC070 71 70     95%   73 29.91   0    
Jun 15 17:59 Calm 10 Light Rain OVC070 72 70     92%   74 29.93        
Jun 15 17:35 Calm 10 Mostly Cloudy SCT043 SCT055 BKN070 74 70     87%   75 29.93        
Jun 15 17:15 Calm 10 Partly Cloudy SCT055 SCT065 75 69     82%   76 29.93        
Jun 15 16:55 S 3 10 Mostly Cloudy SCT060 BKN080 74 68     82%   75 29.94   0 0  
Jun 15 16:37 Calm 10 Mostly Cloudy BKN065 BKN080 72 67     85%   73 29.96   0    
Jun 15 16:19 Calm 10 Light Rain SCT028 SCT039 OVC055 71 67     87%   72 29.96   0    
Jun 15 15:55 WSW 6 10 Light Rain SCT025 BKN043 OVC055 73 65     78%   73 29.98        
Jun 15 15:35 S 3 10 Cloudy BKN043 OVC050 74 67     79%   75 29.98        
Jun 15 15:15 Calm 10 Cloudy OVC045 74 66     78%   74 29.99        
Jun 15 14:57 S 3 7 Light Rain BKN047 BKN060 OVC100 73 66     79%   74 29.99        
Jun 15 14:39 Calm 10 Light Rain SCT047 BKN050 OVC100 75 64     69%   75 30        
Jun 15 14:16 SW 6 10 Cloudy SCT050 BKN060 OVC100 76 62     62%   76 30        
Jun 15 13:55 SW 13 10 Cloudy BKN050 OVC060 76 62     63%   76 30        
Jun 15 13:35 SSW 5 10 Mostly Cloudy SCT050 SCT060 BKN120 76 63     63%   77 30        
Jun 15 13:17 SW 6 10 Partly Cloudy SCT055 SCT120 74 62     65%   75 30.01        
Jun 15 12:59 SW 6 10 Mostly Cloudy SCT070 SCT080 BKN120 73 61     65%   73 30.01        
Jun 15 12:35 SW 8 10 Partly Cloudy SCT075 SCT095 72 60     66%   72 30        
Jun 15 12:15 SW 6 10 Partly Cloudy SCT110 71 60     67%   71 30        
Jun 15 11:55 SW 7 10 Mostly Cloudy SCT035 SCT050 BKN110 70 59     69%     30.01        
Jun 15 11:37 SW 7 10 Light Drizzle SCT050 SCT075 OVC110 70 59     68%     30.01        
Jun 15 11:19 SW 9 10 Mostly Cloudy SCT055 SCT075 BKN120 70 58     66%   70 30.02        
Jun 15 10:55 SSW 7 10 Cloudy OVC120 69 57     65%     30.01        
Jun 15 10:35 SSW 7 10 Mostly Cloudy BKN120 68 56     66%     30.02        
Jun 15 10:15 SSW 8 10 Partly Cloudy SCT120 68 56     65%     30.02        
Jun 15 09:57 SSW 7 10 Partly Cloudy SCT038 SCT050 SCT085 67 55     65%     30.02        
Jun 15 09:39 SSW 7 10 Cloudy SCT041 BKN090 OVC120 67 55     65%     30.03        
Jun 15 09:15 SW 10 10 Mostly Cloudy SCT075 BKN100 BKN120 67 54     64%     30.03        
Jun 15 08:55 SSW 10 10 Mostly Cloudy BKN120 67 54     63%     30.02        
Jun 15 08:36 SSW 8 10 Mostly Cloudy BKN120 67 54     63%     30.03        
Jun 15 08:17 SSW 7 10 Clear CLR 67 54     63%     30.02        
Jun 15 07:59 SW 7 10 Clear CLR 66 54     65%     30.03        
Jun 15 07:35 SSW 7 10 Partly Cloudy SCT120 66 53     64%     30.04        
Jun 15 07:15 SSW 8 10 Mostly Cloudy BKN120 66 53     63%     30.04        
Jun 15 06:56 SSW 7 10 Mostly Cloudy BKN120 65 53     64%     30.04        
Jun 15 06:38 SSW 7 10 Partly Cloudy SCT120 65 53     63%     30.04        
Jun 15 06:19 SSW 6 10 Partly Cloudy SCT120 65 52     63%     30.04        
Jun 15 05:55 SSW 6 10 Cloudy OVC110 65 52     62%     30.04        
Jun 15 05:35 SSW 6 10 Cloudy OVC120 65 52     62%     30.04        
Jun 15 05:16 SSW 5 10 Cloudy OVC110 65 52     62%     30.04        
Jun 15 04:58 S 5 10 Cloudy OVC110 64 52     63%     30.04        
Jun 15 04:40 S 3 10 Cloudy OVC110 64 51     63%     30.03        
Jun 15 04:35 S 5 10 Cloudy OVC110 64 51     63%     30.03        
Jun 15 04:15 S 3 10 Cloudy OVC120 64 51     64%     30.04        
Jun 15 03:55 S 5 10 Cloudy OVC120 64 51     62%     30.03        
Jun 15 03:36 S 5 10 Cloudy OVC110 65 51     62%     30.03        
Jun 15 03:18 S 3 10 Cloudy OVC100 65 51     61%     30.04        
Jun 15 02:55 SSW 3 10 Mostly Cloudy BKN100 65 51     62%     30.05        
Jun 15 02:36 SSW 3 10 Cloudy OVC100 66 51     59%     30.05        
Jun 15 02:35 SSW 3 10 Cloudy OVC100 66 51     59%     30.05        
Jun 15 02:15 SW 3 10 Cloudy OVC100 66 51     57%     30.05        
Jun 15 01:56 SW 6 10 Cloudy OVC110 66 50     56%     30.05        
Jun 15 01:38 SSW 6 10 Mostly Cloudy BKN120 66 50     56%     30.04        
Jun 15 01:15 SSW 8 10 Cloudy SCT075 OVC110 66 49     54%     30.03        
Jun 15 00:55 S 6 10 Cloudy SCT085 OVC110 65 50     57%     30.04        
Jun 15 00:36 Calm 10 Mostly Cloudy BKN110 63 51     63%     30.04        
Jun 15 00:16 Calm 10 Clear CLR 63 51     64%     30.05        
Jun 14 23:58 Calm 10 Clear CLR 64 50     60%     30.06        
Jun 14 23:35 S 3 10 Clear CLR 65 50     60%     30.06        
Jun 14 23:15 SSE 3 10 Clear CLR 64 51     62%     30.06        
Jun 14 22:55 S 3 10 Clear CLR 65 51     60%     30.06        
Jun 14 22:37 S 3 10 Clear CLR 65 50     59%     30.06        
Jun 14 22:19 S 5 10 Clear CLR 65 50     59%     30.07        
Jun 14 21:55 SSW 3 10 Clear CLR 66 50     56%     30.07        
Jun 14 21:35 S 3 10 Clear CLR 66 51     59%     30.07        
Jun 14 21:15 S 3 10 Clear CLR 66 51     57%     30.07        
Jun 14 20:57 SSE 3 10 Clear CLR 66 51     58%     30.07        
Jun 14 20:39 SSE 3 10 Clear CLR 67 50     55%     30.07        
Jun 14 20:15 Calm 10 Clear CLR 68 50     52%     30.07        
Jun 14 19:55 S 3 10 Clear CLR 69 49     48%     30.07        
Jun 14 19:35 S 3 10 Clear CLR 70 49     46%   69 30.07        
Jun 14 19:17 SSW 5 10 Clear CLR 71 48     43%   70 30.07        
Jun 14 18:59 SSW 6 10 Clear CLR 72 48     43%   70 30.08        
Jun 14 18:35 SW 7 10 Clear CLR 72 46     39%   71 30.08        
Jun 14 18:15 SW 8 10 Clear CLR 73 47     39%   72 30.08        
Jun 14 17:55 SSW 9 10 Clear CLR 75 47     37%   74 30.08        
Jun 14 17:37 SSW 6 10 Clear CLR 75 47     37%   74 30.09        
Jun 14 17:19 SSW 7 10 Clear CLR 75 47     37%   74 30.09        
Jun 14 16:55 SSW 6 10 Clear CLR 74 47     38%   72 30.1        
Jun 14 16:36 SSW 8 10 Clear CLR 74 46     36%   73 30.1        
Jun 14 16:35 SSW 8 10 Clear CLR 74 46     37%   73 30.1        
Jun 14 16:15 SSE 6 10 Clear CLR 74 47     38%   72 30.1        
Jun 14 15:57 S 10 10 Clear CLR 74 47     38%   73 30.11        
Jun 14 15:39 SSW 5 10 Clear CLR 74 45     36%   72 30.12        
Jun 14 15:15 SSW 7 10 Clear CLR 73 45     36%   72 30.13        
Jun 14 14:55 SW 8 10 Clear CLR 73 44     35%   72 30.14        
Jun 14 14:35 SSW 7 10 Clear CLR 74 46     37%   72 30.15        
Jun 14 14:17 SW 6 10 Clear CLR 72 44     36%   71 30.16        
Jun 14 13:59 S 8 10 Clear CLR 72 44     36%   71 30.16        
Jun 14 13:35 SSW 6 10 Clear CLR 71 44     37%   70 30.17        
Jun 14 13:15 SW 9 10 Clear CLR 71 43     36%   70 30.19        
Jun 14 12:56 SW 10 10 Clear CLR 70 44     39%   69 30.19        
Jun 14 12:37 SW 9 10 Clear CLR 70 44     39%     30.19        
Jun 14 12:19 SW 8 10 Clear CLR 70 44     39%     30.2        
Jun 14 11:55 SSW 8 10 Clear CLR 69 44     40%     30.2        
Jun 14 11:35 WSW 6 10 Clear CLR 69 43     40%     30.21        
Jun 14 11:16 SW 8 10 Clear CLR 68 46     46%     30.21        
Jun 14 10:58 WSW 11 10 Clear CLR 67 47     49%     30.21        
Jun 14 10:39 WSW 8 10 Clear CLR 67 48     51%     30.21        
Jun 14 10:15 WSW 10 10 Clear CLR 65 48     53%     30.21        
Jun 14 09:55 WSW 9 10 Clear CLR 64 48     56%     30.21        
Jun 14 09:36 SW 8 10 Clear CLR 63 48     58%     30.2        
Jun 14 09:18 WSW 8 10 Clear CLR 62 49     62%     30.2        
Jun 14 09:00 WSW 7 10 Clear CLR 60 49     66%     30.2        
Jun 14 08:55 SW 6 10 Clear CLR 60 48     66%     30.2        
Jun 14 08:35 SW 9 10 Clear CLR 58 49     70%     30.19        
Jun 14 08:15 SW 8 10 Clear CLR 57 48     73%     30.19        
Jun 14 07:56 WSW 8 10 Partly Cloudy SCT002 56 48     76%     30.19        
Jun 14 07:38 WSW 8 10 Partly Cloudy SCT002 54 48     79%     30.18        
Jun 14 07:15 WSW 6 10 Clear CLR 53 48     83%     30.17        
Jun 14 06:55 SW 6 10 Clear CLR 51 47     86%     30.16        
Jun 14 06:35 SW 7 10 Clear CLR 51 47     86%     30.16        
Jun 14 06:16 SW 7 10 Clear CLR 50 47     88%     30.16        
May 15 12:56 SW 9 10 Clear CLR 85 60     44%   85 29.97        
May 15 09:56 W 6 10 Clear CLR 78 60     53%   78          
May 15 09:37 WSW 6 10 Clear CLR 78 60     55%   78 29.94        
May 15 09:16 WSW 8 10 Clear CLR 77 60     56%   77 29.94        
May 15 07:16 WSW 6 10 Clear CLR 71 64     80%   72          
May 15 05:57 SW 6 10 Partly Cloudy SCT090 72 64     75%   73          
May 15 02:57 SW 6 10 Clear CLR 74 63     69%   74          
May 15 01:57 SSW 3 10 Clear CLR 74 63     67%   75 29.9        
May 15 01:16 SSW 3 10 Clear CLR 75 62     65%   75          
May 14 15:56 NE 5 10 Partly Cloudy SCT060 85 65     52%   87          
May 14 11:56 WNW 11 10 Clear CLR 85 64     50%   86          
May 14 09:37 WSW 7 10 Clear CLR 79 65     63%   79          
May 14 06:57 SW 5 10 Clear CLR 69 63     81%              
May 14 06:36 SW 5 10 Clear   69 63     81%     30        
May 13 17:17 SW 14 10 Mostly Cloudy SCT050 BKN070 BKN085 86 63     47%   87 29.98        
May 13 16:37 WSW 13 10 Partly Cloudy SCT050 SCT065 SCT085 87 63     46%   88 29.98        
May 13 11:37   10 Partly Cloudy SCT047 82 63     53%   83 30.04        
May 13 05:57 SW 5 10 Clear CLR 67 62     83%     30.03        
May 13 04:36 Calm 10 Clear CLR 66 62     88%              
May 13 00:57 SSW 5 10 Clear CLR 73 63     71%   73          
May 12 20:17 Calm 10 Clear CLR 80 61     54%   80          
May 12 19:56 S 5 10 Clear CLR 80 61     53%   81 30        
May 12 13:17   10 Partly Cloudy SCT047 83 61     48%   83 30.05        
May 12 09:17 WSW 13 10 Clear CLR 75 60     59%   75          
Notice The following observation data may not be complete
May 12 07:37   10 Clear CLR          %              
May 12 02:17 SW 3 10 Clear CLR 71 59     68%   70          
May 12 00:56 Calm 10 Clear CLR 73 59     60%   73 30.01        
May 11 21:56 Calm 5 Haze CLR 76 58     53%   76          
May 11 20:17 SSW 5 10 Clear CLR 80 56     45%   79          
May 11 19:56 SW 5 10 Clear CLR 81 56     43%   81 29.95        
May 11 17:56 SW 10 10 Clear CLR 85 55     37%   84 29.95        
May 11 17:37   10 Clear CLR 85 56     37%   83 29.94        
May 11 16:37 SW 15 10 Partly Cloudy SCT065 84 55     37%   83 29.97        
May 11 14:17   10 Partly Cloudy SCT055 84 55     38%   83 30        
May 11 12:37 WSW 10 10 Clear CLR 79 63     57%   80          
May 11 12:17 SSW 7 10 Clear CLR 78 62     58%   79 30.04        
May 11 08:17 Calm 10 Clear CLR 63 56     77%              
Notice The following observation data may not be complete
Jun 12 07:36   10 Clear CLR          %              
Jun 12 07:16 SW 3 10 Clear CLR 72 63     72%   73          
Jun 12 03:36 Calm 10 Mostly Cloudy BKN055 71 61     71%   71          
Jun 11 22:56 S 3 10 Clear CLR 76 60     58%   76          
Jun 11 22:16 S 3 10 Clear CLR 77 60     56%   77 30.08        
Jun 11 18:36 SSW 8 10 Partly Cloudy SCT065 85 57     39%   84 30.1        
Jun 11 09:36 SW 9 10 Partly Cloudy SCT055 77 61     58%   77          
Jun 11 07:16 SSW 3 10 Clear CLR 67 60     77%              
Jun 10 23:56 Calm 10 Clear CLR 71 59     64%   71          
Jun 10 21:36 SSW 5 10 Clear CLR 76 58     53%   76          
Jun 10 18:56 SSW 9 10 Clear CLR 83 55     38%   82 30.01        
Jun 10 09:55 SW 6 10 Clear CLR 73 57     57%   73          
Jun 10 03:16 SW 6 10 Clear CLR 65 54     68%              
Notice The following observation data may not be complete
Jun 09 21:36   10 Clear CLR          %              
Jun 09 19:56 SW 8 10 Clear CLR 78 50     36%   78 29.92        
Jun 09 17:16 SW 8 10 Clear   81 48     32%   80 29.92        
Notice The following observation data may not be complete
Jun 09 15:16   10 Clear CLR          %              
Jun 09 13:36 SW 9 10 Clear CLR 78 50     37%   78 29.97        
Notice The following observation data may not be complete
Jun 09 05:36   10 Clear CLR          %              
Notice The following observation data may not be complete
Jun 09 04:36   10 Clear CLR          %              
Jun 09 00:36 Calm 10 Clear CLR 57 53     84%     29.92        
Jun 08 23:15 Calm 10 Clear CLR 63 53     71%     29.92        
Jun 08 20:15 WNW 5 10 Clear CLR 72 49     43%   71 29.9        
Jun 08 08:35 NNE 7 10 Clear CLR 57 52     84%              
Jun 08 03:35 Calm 10 Clear CLR 51 49     93%              
Jun 08 00:16 Calm 10 Clear CLR 55 50     83%     30.04        
Jun 07 16:55 NNE 10 10 Cloudy SCT041 SCT049 OVC060 64 49     59%     30.03        
Jun 07 12:36 NE 7 10 Cloudy BKN047 OVC050 63 51     64%              
Jun 07 10:15 NE 9 10 Cloudy SCT023 BKN036 OVC046 64 52     64%              
Jun 07 09:36 ENE 8 10 Cloudy SCT020 BKN026 OVC034 63 53     70%              
Jun 06 10:35 NNE 8 10 Clear CLR 66 52     61%     29.96        
Jun 06 08:35 NE 5 10 Clear CLR 61 54     78%     29.95        
Jun 06 04:15 NE 5 10 Clear CLR 58 54     84%              
Jun 06 02:35 NE 3 10 Clear CLR 60 55     84%              
Jun 06 00:55 NE 8 10 Clear CLR 64 59     83%              
Jun 05 23:55 NE 5 10 Partly Cloudy SCT080 SCT095 SCT110 66 62     87%              
Jun 05 21:55 Calm 10 Mostly Cloudy SCT075 BKN090 68 64     88%              
Notice The following observation data may not be complete
Jun 05 21:35   10 Mostly Cloudy SCT065 BKN100 BKN120          %              
Jun 05 20:16 NE 3 10 Partly Cloudy SCT017 SCT026 SCT085 70 65     86%     29.77